Theta_e
337 337 337 335 333 332 333 332 330 327 324 326 328 329 331 332 331 331 330 328 327 325 325 325 324 323 323 323 323 325 326 328 330 333 334 336 340 343 344 344 344 344 345 346 346 346 345 346 346 347 348 350 352 353 353 352 350 348 347 346 346 346 346 343 340 339 339 339 339 339 339 340 341 340
337 336 337 336 334 332 332 332 331 326 321 321 324 325 326 328 329 329 329 327 325 324 324 324 324 323 322 323 323 323 324 324 328 331 331 332 336 339 341 342 344 345 346 346 346 345 344 345 345 346 347 349 351 352 352 352 351 349 348 347 346 345 345 343 342 340 340 340 339 339 338 338 339 340
336 335 335 335 334 332 331 332 331 328 323 320 321 323 323 324 325 326 327 327 325 324 324 324 324 324 323 323 323 323 323 324 326 330 332 332 333 335 336 338 340 344 346 346 345 345 345 344 345 346 347 348 349 350 351 351 352 350 349 348 347 345 344 344 343 342 341 341 340 340 339 338 338 339
336 336 334 334 334 332 331 331 331 330 327 322 320 321 322 322 323 325 325 326 325 324 324 324 324 324 323 323 323 323 323 323 325 327 331 333 333 334 335 336 337 341 344 345 345 345 345 344 344 345 346 347 348 350 350 350 350 350 350 349 349 348 346 345 344 344 343 342 340 340 340 340 339 339
335 335 334 334 334 332 331 331 331 330 329 326 321 320 321 322 323 324 325 325 325 325 324 324 324 324 324 324 323 323 323 324 324 325 328 332 334 335 336 337 338 340 343 345 345 344 344 344 344 344 345 346 347 348 349 349 348 349 350 350 350 350 349 347 347 346 345 344 344 343 342 342 342 341
335 335 334 333 333 333 332 331 331 330 329 328 325 321 321 322 322 323 325 325 325 325 324 324 324 324 324 324 323 323 323 324 324 325 327 330 333 335 336 337 338 339 341 343 343 344 343 343 343 344 345 346 347 347 348 347 348 349 350 350 350 351 350 349 348 347 347 346 346 345 345 345 344 344
334 334 333 333 333 333 332 331 330 331 329 329 328 324 322 322 322 323 325 325 325 325 325 324 324 324 324 323 323 323 323 324 325 326 327 330 332 335 336 337 337 337 338 340 341 341 342 343 343 344 346 346 346 347 347 348 348 349 349 350 350 350 350 349 349 348 348 347 345 345 344 344 345 345
332 333 333 333 333 332 332 331 331 331 330 329 328 326 324 323 324 325 325 325 325 325 325 325 324 324 324 323 323 323 323 324 325 326 328 330 332 334 335 336 336 336 336 337 338 340 341 342 343 344 346 346 346 347 347 349 349 350 350 350 349 349 349 349 348 348 348 347 344 344 343 343 344 345
329 331 332 332 332 332 331 331 331 330 330 329 328 328 326 325 326 326 327 327 326 326 325 325 324 324 323 323 323 323 324 325 325 326 328 330 332 333 334 335 336 337 337 337 338 339 339 340 341 342 344 345 346 346 347 349 350 350 350 350 349 349 349 348 348 348 347 346 345 344 343 342 342 342
327 329 331 331 331 332 331 331 330 330 329 328 328 327 327 327 327 328 328 328 327 326 325 325 324 323 323 323 323 323 324 325 325 327 328 330 331 333 334 335 335 336 338 339 339 340 339 339 339 340 342 343 345 345 346 348 349 350 350 350 349 349 348 349 349 348 347 347 346 344 342 341 341 341
326 328 330 330 331 330 330 330 330 330 329 328 327 327 327 327 328 328 328 328 327 326 325 324 324 323 322 323 323 324 324 325 325 327 328 330 330 331 333 335 335 336 337 339 340 340 340 340 339 340 341 343 345 346 347 347 348 349 349 349 349 349 349 349 348 348 347 347 345 344 342 340 339 340
326 328 329 330 330 330 330 330 330 329 329 329 328 327 328 328 328 329 329 328 327 326 325 324 323 323 323 323 323 324 324 325 325 326 327 328 329 329 331 333 335 336 337 339 340 340 341 341 342 342 343 343 345 346 346 346 346 347 348 349 349 349 349 349 349 348 347 347 345 344 342 340 339 340
326 327 327 329 330 330 330 329 329 328 329 330 329 328 328 329 329 329 329 328 327 325 324 323 323 323 323 323 323 324 325 325 325 325 326 327 328 329 330 331 333 335 337 338 340 341 342 343 343 344 344 344 344 344 345 345 345 346 348 350 349 348 348 348 348 348 347 347 346 345 343 340 339 340
326 325 326 328 329 329 329 328 328 328 329 330 330 329 329 329 329 330 329 328 327 325 324 323 322 323 323 323 324 324 324 325 325 326 326 327 327 328 329 330 331 334 336 338 340 340 341 343 345 346 346 346 345 345 344 344 344 345 347 349 349 348 347 347 347 348 347 346 347 347 344 341 340 341
325 324 325 326 328 328 328 327 327 328 328 329 330 330 330 330 331 330 329 329 327 325 323 323 322 323 323 323 323 324 324 325 325 325 326 327 327 328 329 329 330 332 335 337 339 340 340 342 344 345 346 346 346 346 344 343 342 343 344 348 349 349 347 346 347 347 348 348 348 347 344 342 341 341
326 326 326 326 327 327 327 327 327 327 327 328 329 329 329 330 330 330 330 329 326 324 323 322 322 323 323 324 324 324 325 325 325 325 325 326 327 327 327 328 329 331 334 337 339 340 340 341 342 343 343 344 344 344 343 342 342 342 343 346 347 348 347 345 346 348 348 349 348 346 343 342 341 342
327 327 327 328 328 327 327 327 327 327 328 328 328 329 329 330 330 329 328 326 323 322 322 322 322 323 323 324 324 324 324 325 325 325 325 325 326 326 327 327 328 328 331 336 339 340 341 341 342 342 342 341 341 342 341 340 340 341 343 343 345 346 346 343 344 347 349 348 345 343 342 342 341 341
327 327 329 330 330 328 328 327 326 326 327 328 329 330 330 329 328 326 325 323 321 321 322 323 323 324 324 324 324 323 323 324 324 325 325 325 325 326 326 327 327 327 328 332 337 340 340 341 342 342 342 341 342 341 341 341 341 342 343 343 344 345 344 342 343 346 348 345 342 342 341 341 341 341
326 328 331 331 330 329 329 326 325 326 327 328 330 329 328 326 324 323 323 322 321 322 323 324 325 325 324 323 322 322 322 323 323 323 324 324 325 325 326 326 327 327 327 329 333 338 339 340 342 343 343 343 343 342 342 343 343 343 344 345 345 345 344 343 344 347 347 343 340 341 341 341 341 342
325 327 329 330 330 330 329 325 325 325 326 328 328 326 324 323 323 324 324 323 323 323 324 325 324 322 320 319 319 320 321 321 321 322 323 324 324 324 325 326 327 327 327 328 331 336 338 339 341 343 343 343 344 344 344 344 344 345 346 346 346 345 344 344 346 348 347 342 339 340 340 341 341 342
323 324 326 328 330 330 327 324 325 325 326 327 326 324 323 324 324 325 325 324 324 324 325 324 321 318 317 317 318 319 320 320 321 322 323 323 324 324 325 326 327 327 328 328 330 334 336 337 339 342 343 344 344 344 344 345 345 346 347 347 347 346 346 346 348 349 347 343 340 340 340 341 342 343
320 320 323 325 327 326 324 325 326 325 325 326 325 323 324 325 325 325 324 324 324 324 325 324 321 318 317 317 318 319 320 320 320 321 323 323 324 325 325 326 326 327 328 328 329 334 337 337 339 343 344 344 345 345 345 345 346 346 347 348 348 348 348 348 349 349 347 345 342 340 340 341 342 342
320 320 320 321 321 322 323 324 324 324 326 326 324 323 324 325 324 324 323 323 323 323 324 323 320 318 316 317 319 320 320 320 320 321 322 323 324 325 325 326 327 328 329 328 330 335 337 338 340 342 344 345 345 345 346 346 347 347 348 349 349 348 349 349 348 348 347 346 344 342 340 341 342 342
321 320 320 320 320 322 323 323 324 325 325 324 323 324 324 323 322 322 322 322 322 322 323 321 318 316 317 318 319 320 319 319 320 321 321 322 323 324 324 325 327 328 329 329 331 335 338 339 341 342 343 344 345 345 345 346 347 348 348 348 348 348 348 349 349 348 348 347 346 345 344 343 343 343
321 320 320 321 322 324 324 324 325 324 323 323 324 324 322 320 320 320 320 320 320 320 321 320 317 316 317 319 319 319 319 319 320 320 321 322 323 323 323 324 326 328 329 330 332 336 338 339 341 342 342 343 344 345 346 346 346 347 347 348 348 348 348 349 349 349 349 349 349 349 348 348 346 345
320 320 321 322 323 324 323 322 322 322 323 324 324 322 320 318 318 318 318 318 318 318 320 320 318 317 319 319 319 319 319 319 319 320 320 321 322 323 323 324 325 327 329 330 332 336 339 340 340 341 342 342 342 343 344 346 346 347 347 348 348 347 347 348 348 349 349 349 350 350 351 350 349 348
320 321 322 322 323 323 322 321 321 323 324 323 321 320 319 317 317 317 318 317 317 318 319 319 319 318 319 319 319 319 319 319 319 319 320 321 322 322 322 324 325 327 329 331 333 335 338 340 341 341 342 342 341 341 342 343 345 346 347 347 348 348 348 348 348 349 348 349 350 351 350 351 350 350
320 321 322 322 322 321 321 322 324 324 323 321 320 320 319 316 315 316 317 316 316 317 317 318 318 318 319 319 319 318 318 319 319 319 321 321 321 321 323 325 326 328 329 331 333 335 338 339 341 341 342 342 341 342 342 342 343 344 346 346 347 348 348 349 349 349 349 350 350 350 350 350 349 349
320 321 321 321 321 321 322 324 325 325 322 319 319 319 318 315 314 315 315 315 315 316 317 317 317 317 318 318 318 317 318 319 319 319 320 321 321 321 325 329 329 329 330 331 334 336 337 339 341 342 342 342 342 342 342 341 341 342 344 345 345 346 348 348 349 350 350 349 349 349 349 349 350 349
320 320 319 320 322 323 325 326 325 323 320 318 317 317 317 315 314 313 314 313 313 314 315 316 316 316 316 317 317 317 317 318 319 319 320 321 321 320 325 331 331 329 330 332 335 337 338 339 342 342 343 343 342 342 342 341 340 341 343 344 343 343 344 345 346 347 348 348 347 347 348 348 348 349
319 319 320 323 324 324 325 324 323 320 317 316 315 315 316 314 312 311 312 312 312 312 313 314 314 313 314 315 316 317 317 317 319 319 319 321 321 320 322 329 331 331 332 333 334 336 337 339 341 341 341 340 339 340 342 341 340 340 342 343 344 343 343 343 343 344 346 346 345 345 344 344 344 345
319 321 322 323 322 321 321 321 319 317 316 315 314 313 313 312 311 311 311 311 311 311 311 312 312 311 313 314 314 316 316 317 318 319 319 320 321 320 320 323 325 328 331 334 335 335 336 337 339 339 339 339 339 340 341 341 341 341 341 342 344 344 344 343 342 343 343 343 342 342 342 342 342 343
320 320 320 319 319 318 318 317 316 315 315 313 312 311 309 308 308 310 310 309 310 310 309 310 310 310 311 312 313 314 316 316 317 318 318 319 321 321 320 320 320 322 325 329 333 336 337 337 338 338 339 340 341 342 341 340 340 340 340 341 342 343 343 343 343 342 341 341 340 340 340 341 342 343
318 317 317 316 316 315 315 314 313 312 312 310 310 309 307 305 306 307 307 308 308 308 308 308 309 309 309 310 311 313 314 315 316 316 318 318 320 321 321 320 319 320 321 323 326 331 336 338 339 339 340 340 339 339 340 340 340 340 340 340 340 341 342 343 343 342 341 341 340 339 338 339 340 340
317 316 315 314 313 313 312 311 310 310 309 308 308 308 306 304 304 305 306 306 307 306 307 307 307 308 308 309 310 311 313 314 315 315 316 317 318 320 321 321 320 319 320 321 323 325 331 337 339 338 337 336 336 336 337 337 339 340 339 339 340 340 340 342 343 342 342 342 341 339 338 338 338 338
315 314 314 312 311 310 309 308 307 307 307 306 306 307 305 302 303 304 304 305 305 305 305 306 306 307 307 308 309 310 311 313 313 313 315 316 317 318 320 321 321 319 319 321 322 323 326 332 336 337 337 336 337 337 334 333 335 338 338 338 339 340 340 341 342 342 342 341 340 339 339 338 338 338
313 313 311 310 309 308 306 306 305 305 304 304 305 305 304 301 301 302 303 304 304 304 304 304 305 305 306 307 308 308 310 311 312 312 313 314 315 316 317 320 322 320 319 320 321 322 324 325 328 332 336 338 339 338 333 329 329 333 336 337 339 339 340 340 340 341 341 341 341 340 340 339 339 340
312 311 309 308 307 307 306 306 305 303 302 302 302 303 302 300 300 302 303 303 303 303 303 303 303 304 305 306 307 307 308 310 311 312 312 312 314 315 315 317 320 320 319 319 319 321 323 323 323 325 329 336 341 339 332 325 323 325 330 335 337 338 339 340 340 340 341 341 341 341 341 341 340 341
311 310 309 308 307 306 306 306 305 303 302 301 300 301 301 300 299 300 302 302 301 302 302 302 302 303 303 304 305 306 307 308 310 310 311 311 312 313 313 315 317 319 320 319 318 320 322 323 323 322 324 329 336 334 326 321 319 321 326 332 335 336 338 339 340 340 340 341 341 341 340 340 340 340
310 310 309 308 306 305 304 304 303 302 301 300 299 299 300 299 298 299 301 301 301 302 302 302 302 302 302 303 304 305 306 307 308 309 309 309 310 312 312 313 315 317 320 320 319 319 320 322 323 323 322 323 326 326 323 321 320 321 323 325 328 331 334 336 338 339 339 340 340 339 338 337 338 338
309 308 307 306 305 304 303 302 302 301 300 299 298 297 297 298 298 299 300 301 301 301 301 302 302 302 302 302 303 304 305 305 306 307 308 308 309 310 311 312 313 315 318 320 320 320 320 320 321 322 322 322 322 322 321 321 320 320 321 320 322 326 329 331 332 334 336 337 338 338 338 336 336 336
307 306 305 304 304 303 302 301 301 299 299 298 298 296 295 295 297 298 300 301 301 301 301 301 301 301 302 302 302 303 303 304 305 305 306 307 308 309 310 311 311 313 315 318 321 321 319 318 319 321 321 322 322 322 322 321 321 321 321 320 320 322 323 324 326 327 330 332 333 333 333 334 334 334
306 305 304 303 303 302 302 301 300 299 298 297 297 295 292 292 295 298 299 300 300 300 301 301 301 301 301 301 302 302 302 303 303 304 304 305 306 307 308 309 310 312 313 317 321 321 318 317 319 321 321 322 322 322 322 322 321 321 321 320 320 320 320 320 321 322 324 327 327 327 329 331 333 335
304 304 303 302 302 301 300 299 299 298 296 295 294 292 290 291 295 298 299 300 300 300 300 300 299 300 300 301 301 302 302 302 302 303 303 303 304 305 306 307 309 311 313 316 319 321 320 319 318 320 321 323 322 322 322 322 322 321 321 320 320 319 319 319 319 319 321 322 323 325 326 327 330 333
303 303 302 302 301 300 299 298 297 295 292 291 290 289 289 292 297 298 299 299 300 300 300 300 299 299 300 300 301 301 301 302 302 302 303 303 303 304 305 306 308 311 313 314 317 319 321 322 320 320 321 323 323 323 323 323 323 322 322 321 320 319 319 319 319 319 319 319 320 321 322 323 324 326
Wind_Speed
6 5 5 4 4 3 3 4 3 3 5 5 5 5 5 5 5 3 3 5 5 10 17 18 20 26 29 29 30 30 29 30 29 30 31 31 32 31 31 33 36 38 39 41 42 42 43 44 44 43 43 43 42 42 43 44 44 44 44 44 44 43 41 40 39 39 39 39 39 38 38 37 36 35
7 6 6 6 6 5 5 5 6 5 5 6 5 5 5 5 4 4 4 5 8 13 18 18 21 29 32 32 33 33 32 32 30 30 31 31 31 31 31 31 33 35 37 39 41 41 41 42 42 43 43 44 43 42 42 43 44 44 43 43 43 44 43 42 41 40 39 39 39 39 39 38 37 36
8 8 8 8 8 7 6 7 8 8 6 7 7 7 7 7 6 7 6 4 9 16 20 23 27 29 31 33 35 35 34 33 31 29 30 31 31 31 32 33 33 33 35 37 38 40 41 40 41 42 43 44 44 43 42 42 42 43 43 42 41 42 42 42 41 41 40 40 39 39 38 38 37 37
10 11 11 10 9 9 8 9 10 11 9 8 8 8 9 10 9 10 8 6 11 20 23 25 29 30 30 33 34 35 36 35 32 30 30 31 31 31 32 32 32 32 33 34 35 38 40 40 40 41 43 44 45 44 43 42 42 42 43 42 41 40 40 41 41 41 40 40 40 39 39 39 38 38
12 13 13 12 10 10 11 11 12 13 11 10 10 10 10 12 12 12 11 9 10 19 24 25 29 31 30 31 33 34 35 36 35 32 30 30 30 31 31 31 31 31 32 32 32 34 37 40 41 41 42 43 43 44 43 43 42 42 43 42 41 40 39 40 40 40 40 40 40 40 40 40 39 39
13 14 14 13 12 12 13 14 14 15 14 13 12 12 11 12 13 13 13 12 11 16 23 26 29 31 29 30 33 34 34 36 36 34 32 30 30 30 30 31 31 31 31 31 30 30 33 37 40 40 40 40 40 40 41 41 42 42 42 42 41 41 40 40 40 40 40 40 40 40 40 40 39 39
14 14 14 14 13 13 15 16 16 17 17 16 15 14 13 13 15 16 15 15 13 14 20 26 28 30 30 31 33 34 34 34 34 34 33 30 29 30 30 31 32 31 31 31 30 30 30 33 37 39 38 37 38 38 38 39 40 41 41 40 40 40 40 40 40 40 40 40 40 40 40 40 39 39
13 13 14 14 12 13 15 17 17 18 19 19 18 17 15 14 15 18 17 17 17 16 19 25 28 29 29 31 33 33 33 33 32 32 32 30 29 30 30 31 32 32 32 31 31 31 31 32 35 38 39 38 37 37 37 38 39 40 40 39 39 39 40 40 40 40 40 40 40 40 39 39 39 39
11 12 13 14 13 14 16 17 17 18 19 20 20 19 18 16 17 18 19 19 19 18 20 24 28 29 29 30 32 31 30 31 32 31 30 29 28 29 30 30 31 31 31 31 31 32 32 32 33 36 39 39 39 37 37 37 38 39 39 39 39 39 39 39 39 39 40 40 39 39 39 39 39 39
10 11 12 13 13 14 16 16 16 17 18 20 21 21 19 18 18 18 20 20 19 20 21 23 25 28 29 28 30 30 28 29 30 31 31 29 27 26 28 30 30 30 30 31 31 32 33 33 33 34 37 39 40 39 38 37 38 38 39 39 39 39 39 39 38 39 39 39 38 38 38 38 38 39
11 11 12 12 13 14 15 15 15 16 18 19 20 20 20 19 19 19 20 20 20 21 22 21 22 26 28 27 27 29 29 27 27 27 26 26 26 25 25 27 29 29 29 30 31 32 33 33 33 33 35 38 39 39 40 40 39 38 38 39 39 39 39 39 38 38 38 37 37 37 37 37 37 37
12 12 12 12 13 13 14 14 15 16 17 18 20 20 20 20 19 18 19 20 20 21 21 20 21 23 26 26 26 28 27 24 24 24 24 24 26 26 25 26 28 28 28 29 30 31 31 32 32 33 35 37 38 39 40 40 40 39 38 38 39 39 39 39 39 38 37 36 36 36 36 36 35 35
13 13 12 12 12 12 13 14 16 16 15 17 19 19 19 19 19 18 19 19 20 20 19 19 19 19 22 24 24 24 24 23 24 27 26 25 26 27 27 28 27 26 27 28 29 29 30 30 32 33 35 37 37 37 38 38 39 39 39 38 39 39 38 39 39 38 38 36 36 35 35 35 34 34
14 13 11 11 11 12 14 15 16 15 13 14 17 18 18 18 18 18 18 20 20 18 17 19 19 17 18 22 24 23 25 27 27 27 25 24 25 26 24 25 27 25 24 26 29 30 30 30 31 33 35 37 37 37 38 38 39 40 40 39 39 38 38 37 37 38 37 36 36 35 34 34 34 33
15 13 11 11 11 13 14 15 14 13 12 12 14 16 16 17 18 19 19 21 22 19 17 19 20 17 18 23 26 25 26 27 26 26 25 24 24 22 17 16 21 22 20 22 26 30 31 30 30 33 34 36 37 37 38 39 39 40 40 40 40 39 39 38 37 37 37 36 36 36 35 34 33 33
15 15 13 12 12 13 13 13 13 12 12 12 12 14 15 16 18 19 20 21 22 22 20 20 22 21 20 23 26 27 27 27 28 28 27 25 24 22 18 16 19 22 21 21 24 27 29 28 29 32 35 36 37 38 39 39 38 39 40 41 41 41 40 39 37 36 36 36 36 36 35 34 33 32
16 15 14 14 14 13 12 12 13 13 14 13 13 14 15 17 19 20 21 20 20 21 21 22 24 25 23 24 28 31 30 29 30 29 28 27 25 24 23 22 26 27 24 23 23 24 26 26 27 32 35 36 37 38 38 39 39 38 38 39 40 39 39 38 37 36 35 36 36 35 34 33 33 32
15 15 15 15 16 15 13 13 14 14 15 14 14 15 17 19 21 21 20 18 16 17 18 20 25 27 27 27 31 34 32 30 31 30 30 30 29 28 28 30 33 33 29 27 23 20 22 25 26 30 34 34 35 37 38 38 38 37 36 37 36 36 36 36 36 35 34 34 34 34 33 33 32 32
15 15 15 16 17 16 14 14 14 14 14 13 14 16 18 21 22 21 18 16 16 17 17 20 24 27 27 29 32 33 33 32 33 34 34 34 33 34 34 33 34 34 33 30 24 19 20 23 24 29 32 32 33 35 35 36 37 36 36 35 34 33 33 34 34 34 33 32 32 32 32 32 32 32
14 14 14 15 16 16 15 15 14 13 12 12 13 16 20 22 22 20 18 17 18 19 19 21 23 23 25 28 31 32 33 33 34 36 36 35 33 31 28 26 28 30 29 29 26 22 22 22 24 27 29 29 31 33 33 34 35 35 35 34 32 31 31 31 32 32 31 30 30 30 31 32 32 31
12 12 13 13 14 15 16 15 13 12 12 13 14 17 20 21 21 20 20 20 21 21 21 22 21 21 25 28 30 32 32 32 34 34 32 32 30 25 17 15 20 25 26 27 27 25 24 24 25 25 25 27 30 31 31 32 33 33 33 33 32 30 30 30 31 31 31 30 29 30 31 32 32 31
12 12 13 13 14 16 15 13 12 13 13 14 16 18 18 18 20 21 21 22 23 23 22 22 21 22 26 28 30 31 31 32 33 31 31 32 30 24 16 14 17 21 25 29 27 24 24 25 25 23 19 20 25 29 29 29 31 31 31 31 31 30 30 30 31 31 31 31 30 30 31 32 32 32
13 14 14 12 12 13 11 11 13 13 14 16 18 16 14 14 17 20 21 23 24 24 23 22 21 22 26 28 29 29 30 31 32 31 32 33 31 26 22 21 17 12 17 27 28 24 23 24 25 22 13 8 14 23 26 27 28 30 30 30 30 31 30 30 30 30 30 30 30 31 31 32 33 33
15 16 14 11 9 9 9 11 12 12 15 18 15 11 9 12 15 18 20 21 21 22 21 20 19 22 26 28 29 30 31 32 33 33 34 34 33 29 27 25 19 13 17 24 26 27 25 22 23 25 19 9 7 12 20 25 27 28 29 30 30 30 30 30 30 30 30 29 28 29 29 31 33 34
17 17 14 11 9 9 10 11 12 15 17 14 8 6 8 11 13 15 17 17 17 17 17 17 19 22 26 28 30 31 32 33 35 35 36 35 34 32 30 28 23 21 24 26 26 28 26 21 21 22 22 18 12 9 12 18 24 27 28 29 30 29 29 30 31 31 30 29 28 28 28 29 30 32
17 16 14 13 11 10 11 13 15 16 13 7 3 4 8 11 13 13 13 13 15 15 15 15 18 23 26 28 30 31 33 35 37 39 39 38 36 34 32 31 26 25 27 27 28 30 27 23 23 21 19 17 16 13 10 10 15 20 24 26 28 28 28 29 30 31 31 31 30 30 29 29 29 30
17 15 14 13 12 12 13 15 14 10 5 2 2 5 8 11 13 13 12 13 15 15 15 16 19 23 25 27 29 32 34 37 40 42 41 40 38 35 32 30 29 30 30 27 28 33 29 24 24 25 23 19 13 11 11 10 11 15 18 22 25 26 27 28 29 30 31 31 31 31 30 30 29 29
17 16 15 14 13 14 15 13 8 5 4 2 3 5 8 12 14 13 14 15 15 15 16 17 19 23 25 26 29 32 34 37 41 42 42 41 40 35 27 25 27 30 31 27 27 32 33 28 26 27 29 25 16 10 11 12 13 15 16 17 20 23 26 27 27 29 29 30 31 31 31 31 29 28
16 15 15 15 15 14 12 7 6 7 3 3 4 5 8 12 14 14 14 15 16 16 17 19 20 24 26 27 29 32 33 36 40 42 43 43 44 39 22 18 24 25 29 29 27 29 31 32 30 27 27 28 24 18 16 14 15 17 17 16 17 21 24 26 26 27 28 28 30 31 31 31 31 31
15 15 14 14 12 8 4 4 7 5 3 4 3 4 7 10 13 14 14 15 16 16 18 20 22 24 26 27 29 31 34 36 39 42 44 42 42 44 27 11 22 22 24 27 27 27 28 30 30 26 25 27 27 25 23 18 15 17 20 19 16 15 19 23 24 24 26 27 28 29 29 30 31 32
14 13 10 6 3 4 7 8 7 5 4 4 4 4 5 9 12 12 11 13 15 16 18 20 22 24 25 26 29 31 33 35 38 41 43 39 37 42 33 6 13 17 22 27 27 26 26 27 28 27 25 25 24 24 25 22 18 17 20 23 20 14 15 21 22 23 25 25 25 26 28 29 30 29
11 7 2 6 8 9 9 8 6 4 4 4 5 5 6 10 12 10 10 12 13 15 18 20 22 25 25 25 28 30 31 34 37 38 41 39 35 35 31 18 10 5 9 21 26 28 27 26 27 27 27 27 25 23 22 21 21 20 20 22 24 19 16 18 22 24 24 24 24 26 28 30 30 28
5 3 8 9 8 7 7 5 4 3 4 6 7 7 10 12 13 12 13 14 15 16 18 20 22 24 24 25 27 28 29 32 36 36 38 38 35 31 26 23 23 22 14 4 12 23 28 28 27 28 29 28 26 25 23 19 18 22 22 21 22 21 18 18 21 23 24 24 25 26 27 28 29 29
1 7 9 8 7 6 5 5 5 6 6 8 9 11 13 15 15 15 14 15 16 17 18 20 21 22 23 24 26 26 26 30 34 34 34 35 34 30 26 23 23 25 23 20 12 5 17 26 27 24 25 24 20 18 21 20 19 22 24 22 22 22 20 18 19 22 25 26 26 25 24 25 27 28
5 6 7 8 7 6 6 6 7 7 7 9 11 12 14 16 16 16 15 15 15 17 18 20 21 22 23 23 24 24 25 27 31 32 33 33 32 30 25 23 23 24 24 23 22 16 3 17 25 20 14 13 11 9 10 13 16 18 20 20 21 22 20 20 21 22 24 26 25 23 21 21 24 27
7 5 6 7 7 6 7 8 8 8 8 10 10 11 13 16 15 15 15 14 15 17 19 20 21 22 23 23 23 23 24 26 28 30 30 31 31 30 26 24 24 25 25 25 25 24 17 3 15 17 10 6 5 5 4 4 7 11 15 16 18 20 19 19 21 23 24 25 25 23 21 20 23 27
8 6 6 7 7 7 9 9 9 9 9 9 9 10 12 14 14 13 13 14 16 17 18 20 21 22 23 23 24 24 25 25 25 26 28 29 29 28 26 25 25 26 27 27 27 25 23 19 10 2 5 6 6 5 4 4 4 3 9 13 15 17 18 17 19 21 23 24 26 26 24 22 24 27
8 8 7 8 8 8 8 8 9 9 9 9 9 9 11 12 13 13 13 15 17 18 19 20 21 22 23 24 25 25 25 24 24 25 27 28 27 26 25 24 24 26 27 28 30 29 26 26 25 19 9 4 9 5 3 4 8 10 2 8 12 13 14 16 18 20 21 23 25 26 26 25 25 25
8 8 8 8 7 7 7 7 7 8 9 9 8 8 9 11 13 13 14 16 17 18 19 21 21 22 23 24 24 24 23 23 24 24 26 27 25 25 26 24 23 24 25 27 31 33 31 30 29 29 24 10 6 13 15 12 12 19 17 5 6 8 10 13 17 18 19 20 23 23 22 23 22 21
9 8 8 8 7 6 6 6 6 7 8 8 9 8 8 9 11 12 14 16 17 18 19 20 21 22 23 24 24 24 23 23 23 22 24 26 25 25 26 24 23 22 22 23 26 29 31 33 33 32 31 20 11 26 32 25 20 26 29 22 11 2 5 9 12 14 15 17 21 21 19 17 15 14
9 9 8 7 6 6 5 5 5 6 6 7 8 8 7 8 9 10 12 13 15 17 19 20 21 22 23 24 24 23 23 24 24 24 24 26 26 27 27 25 24 22 19 18 21 25 29 33 35 34 34 28 16 16 22 19 15 18 25 29 27 19 10 4 3 7 9 12 17 19 18 17 17 17
8 8 7 6 5 5 5 4 4 5 5 7 8 8 8 7 7 8 9 11 14 16 18 20 21 21 22 23 23 23 22 23 24 24 24 25 25 26 27 25 23 22 19 16 19 24 28 32 34 35 36 34 26 14 9 9 10 13 18 24 29 31 30 26 20 11 4 5 9 10 10 11 10 11
6 6 5 5 4 4 4 4 4 5 6 7 8 9 9 8 7 8 9 12 14 16 18 20 21 21 22 23 22 22 22 22 23 23 23 24 23 23 24 24 22 22 21 18 19 22 25 29 32 33 33 33 28 20 13 11 12 14 16 18 23 30 34 36 35 32 26 18 10 3 5 7 6 9
6 5 5 4 4 3 3 4 5 6 7 7 7 8 9 8 8 8 10 12 14 16 18 19 20 21 22 22 23 23 23 22 23 22 22 23 23 22 22 24 24 23 23 22 19 19 20 23 27 29 28 27 25 20 16 15 14 14 17 20 22 25 29 32 34 36 38 36 29 20 13 9 4 9
6 5 4 4 3 3 3 4 6 7 7 6 7 8 8 8 8 8 10 12 14 16 18 19 20 21 21 22 23 23 23 23 23 23 22 23 23 23 24 25 24 24 24 23 21 18 16 19 22 22 22 23 23 20 18 17 17 16 18 20 21 21 24 28 29 31 34 35 34 31 31 30 26 18
Wind_Direction
307 304 281 283 301 297 286 285 286 313 320 321 326 322 307 295 302 307 307 311 304 315 325 323 322 327 326 322 320 316 308 302 296 292 291 289 286 283 279 273 268 264 261 259 256 255 253 251 251 251 250 249 247 247 246 246 246 246 247 248 249 251 252 252 253 253 254 255 256 256 256 257 257 257
299 300 287 279 277 265 262 271 268 280 317 328 325 328 325 306 289 282 296 302 291 303 319 318 314 322 326 325 322 318 314 310 303 293 289 286 284 283 282 279 275 270 265 262 259 256 254 252 251 251 251 250 248 247 247 247 247 247 247 248 249 250 251 252 253 253 254 255 257 257 257 257 257 257
288 283 280 276 270 262 259 259 259 268 300 324 323 323 322 313 298 284 278 279 288 299 309 312 312 317 321 322 321 318 316 315 309 298 290 287 284 282 280 278 276 273 269 265 262 258 255 253 252 251 251 251 249 248 247 247 247 247 247 248 250 251 252 253 253 253 254 255 256 257 257 257 257 258
276 273 275 275 266 261 264 260 253 257 275 301 313 316 314 312 308 291 271 256 285 298 304 306 310 314 315 318 319 317 315 314 312 303 292 288 287 284 281 278 276 274 271 268 265 261 257 254 253 253 252 251 250 250 248 248 248 247 247 247 249 251 252 253 254 254 255 255 256 256 257 257 258 258
271 272 276 275 265 261 268 266 255 253 260 277 293 303 303 304 308 298 276 262 282 301 307 307 308 312 313 313 315 315 313 314 314 308 297 290 288 285 282 279 276 275 273 271 268 264 260 257 255 255 253 251 250 250 249 249 249 248 247 247 248 251 252 253 254 254 255 256 256 256 257 257 258 258
270 269 271 272 266 264 268 268 259 254 256 263 274 286 290 293 303 302 284 274 280 298 308 309 309 312 313 311 313 314 312 311 313 310 301 292 287 284 282 280 277 275 274 274 272 269 264 259 256 255 252 250 249 249 248 249 250 249 248 247 248 250 252 253 254 254 255 256 256 257 257 258 258 259
276 271 266 267 266 264 267 268 264 259 257 260 264 272 280 285 296 302 293 282 280 287 302 307 308 311 312 310 311 313 312 311 310 308 303 295 288 284 281 279 278 275 273 273 273 273 269 263 258 255 252 249 248 248 248 248 249 249 248 248 249 250 252 253 254 254 255 256 257 257 258 258 258 259
280 275 268 267 269 270 271 272 269 263 261 263 264 266 274 280 292 301 298 291 286 285 295 303 304 307 309 309 310 312 311 311 310 306 302 297 291 286 282 279 278 276 274 272 270 270 270 267 262 257 253 251 249 249 248 248 249 249 249 249 250 252 253 254 254 255 255 256 257 258 259 259 259 259
277 275 272 272 273 274 275 276 272 267 265 266 267 267 271 279 291 298 298 296 294 290 292 297 302 305 307 308 310 311 310 310 309 306 302 298 293 289 285 280 277 276 274 272 269 267 266 266 265 261 257 254 252 250 249 248 248 248 248 249 251 253 254 254 254 255 256 257 258 259 259 259 259 259
278 276 273 272 272 272 276 277 275 276 275 271 268 267 270 280 290 293 295 297 297 294 293 294 298 303 306 308 309 311 310 307 305 304 303 302 299 293 288 283 280 276 272 269 268 266 264 264 263 263 260 255 253 251 249 247 247 247 248 249 251 253 254 254 255 255 256 257 258 259 259 259 259 259
285 281 277 275 274 275 277 279 282 289 289 281 272 268 272 281 285 287 293 296 296 295 296 296 296 300 304 306 306 309 312 308 303 302 302 305 307 302 294 288 285 280 273 268 266 265 265 264 262 262 261 256 252 250 248 248 248 249 250 250 251 253 254 254 254 255 256 257 258 258 258 258 258 258
290 287 283 280 279 279 277 280 289 298 297 287 276 271 275 281 281 284 291 294 294 295 296 296 295 297 301 304 307 311 313 309 305 305 303 302 303 304 299 292 286 282 277 272 267 265 264 262 261 261 260 256 251 248 248 249 250 250 251 252 253 253 254 254 254 255 255 256 257 257 257 256 256 257
292 291 287 282 281 281 281 287 296 300 297 288 281 279 280 280 279 283 288 289 290 293 295 295 295 295 298 303 309 312 311 308 305 305 302 297 297 300 299 294 287 280 275 272 268 263 259 256 256 256 255 255 252 249 249 248 249 249 250 252 254 253 254 254 254 254 253 254 255 256 256 255 254 255
292 293 288 282 282 284 287 293 299 300 294 283 279 282 283 281 280 282 284 285 287 291 291 291 294 293 293 300 307 308 308 308 305 302 299 295 297 299 298 295 291 282 272 267 264 261 257 252 250 249 250 252 252 251 250 250 249 249 249 250 252 252 253 254 253 252 251 252 253 254 255 254 253 253
289 292 287 283 285 289 293 298 302 303 299 288 281 281 282 280 281 280 280 283 288 289 285 286 289 286 286 298 306 306 307 309 307 303 299 293 292 295 293 293 294 288 277 264 259 260 258 250 246 246 246 249 251 251 253 253 253 252 251 250 250 252 254 255 253 251 249 250 251 252 252 252 251 251
284 288 287 286 288 292 297 302 304 304 303 298 289 285 284 282 281 281 281 284 288 287 283 282 284 284 287 297 304 304 306 307 307 305 301 292 285 282 279 279 282 283 280 268 258 258 259 251 245 245 247 247 249 252 254 256 256 255 253 251 251 252 255 255 253 250 250 250 250 250 250 249 249 249
281 284 286 287 289 294 298 302 306 305 302 298 291 288 288 287 286 287 288 288 287 285 281 279 282 290 293 294 299 305 307 306 305 304 302 297 287 277 272 272 274 276 277 270 259 257 258 252 243 244 247 248 248 249 252 254 256 255 253 250 250 252 254 253 252 250 250 250 249 249 248 247 247 246
280 283 285 286 290 293 295 300 308 307 302 296 290 289 291 292 294 296 294 293 292 290 285 281 285 293 296 293 299 307 309 306 302 299 298 298 293 284 278 274 272 272 271 268 264 259 256 250 242 242 246 248 246 247 249 251 252 253 252 249 249 252 252 251 250 250 250 250 249 248 246 244 244 243
278 282 285 287 290 291 291 298 305 304 300 296 291 293 298 301 302 301 297 296 299 299 297 291 289 293 298 301 306 311 311 308 304 300 296 294 292 290 286 278 270 268 266 263 261 260 257 249 241 241 245 246 246 246 247 248 250 250 250 249 250 251 251 249 248 247 247 249 249 246 243 241 241 240
278 283 286 288 289 286 287 294 300 300 298 293 292 299 306 307 305 303 303 304 304 304 306 304 300 304 313 317 317 316 314 311 309 305 298 293 291 287 283 275 266 262 261 256 251 254 259 251 242 243 245 243 244 246 245 245 247 248 248 249 250 250 249 247 246 245 245 246 246 244 241 240 239 239
282 284 285 285 283 282 286 289 293 298 295 289 295 305 308 307 304 305 310 310 306 306 309 307 307 315 324 325 323 321 317 314 312 305 296 291 289 282 273 269 262 257 255 251 244 244 251 249 243 243 243 240 241 244 244 244 246 247 247 249 250 249 248 246 244 242 242 244 244 243 241 240 239 240
286 288 288 285 280 281 284 284 290 297 290 288 301 307 305 303 303 308 314 313 310 310 309 307 309 317 326 328 325 322 319 318 316 306 295 293 289 279 270 266 261 254 251 246 238 235 241 243 238 234 234 236 239 241 243 244 243 244 245 247 248 248 247 245 243 242 242 244 243 242 241 240 240 241
289 295 295 291 282 277 279 286 293 295 289 293 305 307 300 300 305 311 315 313 310 309 307 308 314 322 328 327 323 320 320 322 320 310 301 297 287 277 275 270 259 249 247 241 230 225 232 234 229 223 217 225 239 239 241 242 241 242 243 243 244 245 244 244 244 243 243 243 242 241 241 241 241 242
294 299 299 293 283 279 286 294 295 293 294 299 304 302 303 309 309 311 312 308 307 306 303 309 320 326 328 325 320 320 321 322 322 316 309 301 288 278 276 269 255 239 242 238 222 217 225 226 221 217 214 214 232 233 233 236 237 238 240 240 241 243 242 241 242 242 242 241 241 240 240 242 243 243
297 301 300 295 287 283 291 296 296 297 298 297 292 294 317 323 316 311 309 307 309 309 306 313 324 328 326 322 320 321 323 324 323 320 314 306 294 283 274 266 256 242 239 236 222 216 219 218 213 211 210 216 223 214 215 227 232 233 236 238 240 241 240 238 238 238 238 237 237 237 238 240 242 241
297 299 297 296 294 290 296 300 299 297 292 277 266 303 329 334 327 321 318 318 321 322 319 321 325 326 324 320 321 325 327 327 327 323 319 312 303 291 276 262 252 241 235 231 223 218 216 212 208 203 200 209 218 212 202 212 224 228 231 234 236 238 239 237 236 236 236 235 235 235 236 237 238 238
296 295 293 295 296 296 301 302 295 282 252 214 311 331 341 340 334 332 334 334 332 330 328 327 325 323 321 319 322 326 327 329 330 327 323 318 310 300 283 261 246 238 234 228 221 219 217 214 210 205 201 201 203 205 205 209 214 218 222 227 231 234 235 235 236 236 236 236 235 235 234 234 234 234
291 292 293 296 298 298 300 296 272 215 163 77 355 344 344 340 337 337 340 342 339 332 329 330 325 321 319 320 324 326 326 330 332 329 327 326 323 315 293 258 239 233 229 226 222 218 216 217 216 212 208 203 195 194 205 211 213 212 212 218 225 229 230 231 232 233 234 234 233 231 229 226 225 225
288 291 294 297 297 294 290 269 200 166 117 33 359 346 345 340 338 340 344 348 344 333 330 330 324 319 321 324 328 329 330 334 337 335 333 333 337 338 319 249 231 230 223 219 219 217 216 218 218 214 210 206 202 201 200 203 209 210 205 205 216 226 229 227 227 228 229 230 230 229 228 226 223 220
287 288 290 290 286 275 249 179 158 139 73 26 3 355 347 338 338 344 349 351 347 338 333 331 324 322 326 329 333 337 340 341 341 340 338 336 341 348 344 242 214 220 218 215 217 217 218 220 218 213 211 210 208 207 205 204 203 205 206 206 206 216 225 225 223 223 224 227 230 230 228 226 224 223
287 288 288 280 236 155 131 128 126 105 62 26 10 12 355 336 337 345 350 351 351 346 339 333 329 331 334 335 339 344 344 343 343 345 343 339 343 351 355 331 203 210 213 212 217 220 223 226 223 218 216 213 210 210 211 210 204 199 205 208 205 205 214 216 216 219 222 223 224 224 220 219 220 223
291 285 216 141 131 125 122 122 116 94 54 15 4 11 359 343 340 347 353 354 357 356 348 340 338 341 341 341 343 346 344 342 345 348 347 342 342 352 1 11 16 349 223 212 215 219 224 230 230 227 224 220 216 213 210 210 210 207 206 207 207 210 215 211 210 215 218 215 213 215 215 215 219 222
289 164 142 134 125 117 115 111 88 52 19 7 10 14 7 359 358 3 4 1 2 2 355 347 345 346 346 345 347 348 345 342 345 350 350 344 342 350 4 13 16 13 7 311 227 219 221 226 230 232 231 228 225 218 207 203 209 213 212 209 206 209 215 215 210 209 208 205 206 209 212 215 221 226
124 132 125 116 108 99 88 67 46 38 26 17 20 19 13 9 8 9 8 6 6 6 360 354 351 351 350 350 349 348 346 344 346 351 352 347 344 351 3 12 14 14 13 11 4 272 223 220 221 224 224 221 218 212 206 205 210 213 213 212 209 208 211 211 207 206 206 204 202 203 208 215 222 226
137 133 115 101 93 83 72 58 48 46 38 27 23 19 14 12 11 9 8 8 10 8 3 359 358 357 355 353 350 350 349 347 347 351 353 351 349 352 360 9 13 13 13 11 9 9 322 211 205 201 201 199 190 182 194 209 215 211 209 211 212 211 209 205 203 203 204 204 202 199 201 210 218 222
144 131 108 94 84 74 71 64 53 50 44 34 28 22 14 11 11 10 9 12 15 13 6 3 1 0 358 355 353 355 356 353 349 350 353 353 353 352 357 5 11 13 16 14 10 13 22 88 185 186 177 166 173 173 169 189 206 205 206 212 214 213 211 208 206 204 202 202 202 200 199 206 213 218
132 115 105 94 85 77 72 64 54 49 44 36 34 31 20 13 12 14 17 20 22 18 11 8 5 2 1 360 359 1 2 359 354 352 354 355 354 354 356 0 5 9 15 17 15 16 24 36 50 131 192 178 175 177 154 109 85 160 204 214 217 217 216 210 204 205 206 206 206 207 208 211 215 220
118 110 102 92 85 76 67 60 53 45 39 35 34 32 23 15 14 19 24 26 25 20 15 12 10 7 6 6 3 2 4 2 359 357 358 358 356 355 355 356 1 6 10 15 18 19 23 30 29 18 357 213 190 175 133 93 49 42 66 209 213 217 218 210 203 204 209 210 211 214 216 218 222 227
112 109 101 93 87 77 68 64 57 48 41 34 29 25 20 15 15 20 25 26 24 22 17 14 11 9 9 9 8 5 4 5 3 360 359 358 357 357 358 356 357 2 9 14 18 18 20 24 25 17 7 353 169 137 116 108 76 59 60 90 206 215 216 214 209 208 211 213 215 216 217 221 226 229
120 117 112 108 99 85 74 68 61 54 45 33 25 21 15 11 13 20 24 23 23 22 19 15 13 12 10 10 10 9 7 7 5 2 1 1 1 2 3 1 359 3 11 16 16 16 18 21 23 24 20 22 94 118 106 95 78 66 62 61 62 101 210 221 218 213 214 217 214 210 206 208 210 208
127 118 112 109 100 87 78 66 56 52 41 27 19 14 8 4 9 17 22 24 24 23 19 17 16 14 12 10 10 10 9 8 7 6 5 4 4 5 6 7 4 4 10 15 14 15 20 26 31 38 39 35 49 96 97 85 71 67 65 63 63 69 79 93 185 212 219 217 210 205 203 199 193 190
130 118 109 105 98 88 79 62 47 39 30 17 10 6 2 358 2 12 21 27 28 25 22 20 19 17 15 13 12 11 10 8 7 8 8 7 6 6 7 7 4 2 6 14 17 20 28 36 40 44 46 41 34 38 67 81 77 76 74 68 66 70 72 72 73 81 114 186 198 203 203 194 182 181
133 123 113 108 100 89 75 54 34 22 11 1 357 359 2 6 12 19 24 27 28 27 24 22 22 21 19 16 14 13 12 10 9 9 9 10 8 6 5 5 5 7 11 21 33 38 41 42 41 41 44 43 37 33 41 57 64 70 72 67 66 70 72 70 69 70 73 76 79 97 201 206 211 209
130 123 119 115 104 86 63 41 23 8 355 349 353 1 10 21 30 32 32 31 30 29 26 24 24 24 22 19 17 15 13 12 12 11 11 12 12 11 10 9 12 16 18 23 35 45 50 50 48 44 43 43 40 36 38 44 49 57 63 63 61 65 68 66 64 64 65 65 63 64 75 93 134 195
131 122 115 109 100 83 59 34 21 10 2 3 9 12 20 34 45 45 41 37 33 31 29 26 25 25 24 21 18 15 14 15 17 16 16 15 14 16 17 16 17 21 23 24 27 34 46 57 60 54 49 48 47 42 38 40 42 47 53 57 55 57 63 64 62 60 60 61 62 65 69 72 74 85